Regional Weather Roundup
Issued by NWS

Home | Current Version | Previous Version | Graphics & Text | Print | Product List | Glossary On
Versions: 1 2 3 4 5 6 7 8 9 10 11 12 13 14 15 16 17 18 19 20 21 22 23 24 25 26 27 28 29 30 31 32 33 34 35 36 37 38 39 40 41 42 43 44 45 46 47 48 49 50
000
ASUS43 KLMK 192002
RWRKY
KENTUCKY REGIONAL WEATHER ROUNDUP
NATIONAL WEATHER SERVICE LOUISVILLE KY
300 PM EST THU JAN 19 2017

NOTE "FAIR" INDICATES FEW OR NO CLOUDS BELOW 12,000 FEET
WITH NO SIGNIFICANT WEATHER AND/OR OBSTRUCTIONS TO VISIBILITY.

KYZ001>023-026-027-061>063-070>075-192100-
WESTERN AND SOUTH CENTRAL KENTUCKY

CITY           SKY/WX    TMP DP  RH WIND       PRES   REMARKS
PADUCAH        CLOUDY    55  53  93 SE8       29.75F
HENDERSON      CLOUDY    50  46  87 SE9       29.79F
OWENSBORO      LGT RAIN  51  49  92 E7        29.82F
HOPKINSVILLE   DRIZZLE   54  54 100 SE9       29.79F
BOWLING GREEN  CLOUDY    55  53  93 E5        29.84F
GLASGOW        NOT AVBL
$$

KYZ024-025-028>034-038-045-046-053-192100-
NORTH CENTRAL KENTUCKY

CITY           SKY/WX    TMP DP  RH WIND       PRES   REMARKS
LOUISVILLE/SDF LGT RAIN  54  39  57 E8        29.87F
LOUISVILLE/LOU CLOUDY    54  39  57 E5        29.89F
FORT KNOX      CLOUDY    52  43  72 E10       29.84F
$$

KYZ035>037-039>044-047>052-055>060-089>105-192100-
NORTHEAST KENTUCKY

CITY           SKY/WX    TMP DP  RH WIND       PRES   REMARKS
LEXINGTON      CLOUDY    56  35  45 SE8       29.92F
COVINGTON      CLOUDY    48  40  73 E6        29.93F
FRANKFORT      CLOUDY    57  36  45 E8        29.90F
$$

KYZ054-064>069-076>088-106>120-192100-
SOUTHEAST KENTUCKY

CITY           SKY/WX    TMP DP  RH WIND       PRES   REMARKS
JACKSON        CLOUDY    54  39  57 CALM      29.95F
LONDON         LGT RAIN  49  46  90 E5        29.95F
SOMERSET       DRIZZLE   46  46 100 E3        29.94F
MIDDLESBORO    RAIN      52  47  84 CALM      29.98F
MONTICELLO     CLOUDY    53  50  89 VRB7      29.92F
$$





USA.gov is the U.S. government's official web portal to all federal, state and local government web resources and services.